Date String (YYYY-MM-DD hh:mm:ss) UTC,Instrument flags,absolute air pressure of the measurement (hPa),sample flow rate (lpm),inlet stack bypass flow (lpm),air temperature of the measurement (°C),ambient temperature measured by the external sensor (°C),aerosol sample conditioner tube jacket temperature (°C),OPC LED temperature (°C),internal box temperature (°C),relative humidity of the measurement (%),span deviation,mass concentration of particles derived from Lorenz-Mie calculation of OPC scattering (μg/m³),mass concentration of particles derived from Lorenz-Mie calculation of OPC scattering (μg/m³),mass concentration of particles derived from Lorenz-Mie calculation of OPC scattering (μg/m³)
DateTimeUTC,F1_M11,P_M11,Q1_M11,Q2_M11,T1_M11,T2_M11,T3_M11,T4_M11,T5_M11,U1_M11,ZSPAN_M11,X0_M11,X2_M11,X1_M11
2024-01-26 18:00:00,SystemResetWarning,0834.1,4.99,000.00,020.7,019.8,000.0,028.9,022.1,20.7,0002.3,0007.28,0004.53,0004.35
2024-01-26 18:01:00,SystemResetWarning,0834.1,5.00,000.00,020.7,019.8,000.0,028.9,022.1,20.8,0001.7,0007.36,0004.56,0004.37
2024-01-26 18:02:00,SystemResetWarning,0834.1,5.00,000.00,020.7,019.8,000.0,028.9,022.1,20.9,0001.3,0007.34,0004.55,0004.36
2024-01-26 18:03:00,SystemResetWarning,0834.1,5.00,000.00,020.7,019.8,000.0,028.9,022.1,21.0,0001.4,0006.80,0004.53,0004.36
2024-01-26 18:04:00,SystemResetWarning,0834.1,5.00,000.00,020.7,019.8,000.0,028.9,022.1,20.8,0001.7,0006.89,0004.52,0004.35
2024-01-26 18:05:00,SystemResetWarning,0834.1,5.00,000.00,020.7,019.9,000.0,028.9,022.1,20.9,0000.6,0007.71,0004.52,0004.35
2024-01-26 18:06:00,SystemResetWarning,0834.1,5.00,000.00,020.7,019.9,000.0,029.0,022.1,21.4,0000.0,0007.73,0004.53,0004.36
2024-01-26 18:07:00,SystemResetWarning,0834.0,5.00,000.00,020.7,019.9,000.0,029.0,022.1,22.0,0000.0,0007.74,0004.55,0004.38
2024-01-26 18:08:00,SystemResetWarning,0834.0,5.01,000.00,020.7,019.9,000.0,029.0,022.1,22.4,0000.0,0007.78,0004.58,0004.39
2024-01-26 18:09:00,SystemResetWarning,0834.1,5.00,000.00,020.7,019.9,000.0,029.0,022.1,22.5,0000.0,0007.84,0004.62,0004.41
2024-01-26 18:10:00,SystemResetWarning,0834.1,5.00,000.00,020.7,019.9,000.0,029.0,022.1,21.9,0000.0,0007.88,0004.65,0004.42
2024-01-26 18:11:00,SystemResetWarning,0834.0,5.00,000.00,020.7,019.9,000.0,029.0,022.1,21.6,0000.0,0007.76,0004.64,0004.41
2024-01-26 18:12:00,SystemResetWarning,0834.1,5.00,000.00,020.7,019.9,000.0,029.0,022.1,21.8,0000.0,0007.67,0004.61,0004.40
2024-01-26 18:13:00,SystemResetWarning,0834.0,5.00,000.00,020.7,019.9,000.0,029.0,022.1,20.5,0000.0,0007.69,0004.61,0004.40
2024-01-26 18:14:00,SystemResetWarning,0834.0,5.00,000.00,020.7,019.9,000.0,029.0,022.1,19.8,0000.0,0007.76,0004.63,0004.41
2024-01-26 18:15:00,SystemResetWarning,0834.0,5.00,000.00,020.7,019.9,000.0,029.0,022.1,19.8,0000.0,0007.85,0004.65,0004.42
2024-01-26 18:16:00,SystemResetWarning,0834.0,5.00,000.00,020.7,019.9,000.0,029.0,022.1,20.4,0001.0,0007.12,0004.68,0004.43
2024-01-26 18:17:00,SystemResetWarning,0834.0,5.00,000.00,020.7,019.9,000.0,029.0,022.1,20.7,0001.4,0006.97,0004.65,0004.42
2024-01-26 18:18:00,SystemResetWarning,0834.0,5.00,000.00,020.7,019.9,000.0,029.0,022.1,20.1,0001.6,0006.90,0004.63,0004.42
2024-01-26 18:19:00,SystemResetWarning,0834.0,5.00,000.00,020.7,020.0,000.0,029.0,022.0,20.2,0001.4,0007.36,0004.63,0004.42
2024-01-26 18:20:00,SystemResetWarning,0834.0,4.99,000.00,020.7,019.9,000.0,029.0,022.1,20.3,0001.2,0007.33,0004.61,0004.42
2024-01-26 18:21:00,SystemResetWarning,0834.0,5.01,000.00,020.7,019.9,000.0,029.0,022.1,19.0,0001.3,0007.35,0004.61,0004.43
2024-01-26 18:22:00,SystemResetWarning,0834.0,5.00,000.00,020.8,020.0,000.0,029.0,022.1,18.8,0001.1,0007.40,0004.64,0004.44
2024-01-26 18:23:00,SystemResetWarning,0834.0,5.00,000.00,020.8,020.0,000.0,029.0,022.1,18.9,0001.3,0007.42,0004.66,0004.46
2024-01-26 18:24:00,SystemResetWarning,0834.0,5.00,000.00,020.8,020.0,000.0,029.0,022.2,18.8,0001.0,0007.42,0004.67,0004.47
2024-01-26 18:25:00,SystemResetWarning,0834.0,5.00,000.00,020.8,020.0,000.0,029.0,022.2,19.0,0000.2,0007.43,0004.65,0004.47
2024-01-26 18:26:00,SystemResetWarning,0834.0,5.00,000.00,020.8,020.0,000.0,029.0,022.2,19.8,0000.0,0008.15,0004.65,0004.48
2024-01-26 18:27:00,SystemResetWarning,0834.0,5.01,000.00,020.8,020.0,000.0,029.0,022.2,19.7,0000.0,0008.26,0004.63,0004.47
2024-01-26 18:28:00,SystemResetWarning,0834.0,5.00,000.00,020.8,020.0,000.0,029.1,022.2,18.9,0000.0,0008.35,0004.63,0004.47
2024-01-26 18:29:00,SystemResetWarning,0834.0,4.99,000.00,020.8,020.1,000.0,029.1,022.2,19.5,0000.0,0008.39,0004.64,0004.46
2024-01-26 18:30:00,SystemResetWarning,0834.0,4.99,000.00,020.8,020.1,000.0,029.1,022.2,19.4,0000.0,0008.05,0004.63,0004.44
2024-01-26 18:31:00,SystemResetWarning,0834.0,5.00,000.00,020.8,020.1,000.0,029.1,022.3,18.5,0000.0,0007.98,0004.62,0004.43
2024-01-26 18:32:00,SystemResetWarning,0834.0,5.00,000.00,020.8,020.1,000.0,029.1,022.3,18.6,0000.0,0007.94,0004.60,0004.42
2024-01-26 18:33:00,SystemResetWarning,0834.0,5.00,000.00,020.8,020.1,000.0,029.1,022.3,18.2,0000.0,0007.88,0004.57,0004.40
2024-01-26 18:34:00,SystemResetWarning,0834.0,5.00,000.00,020.9,020.1,000.0,029.1,022.3,18.4,0000.0,0008.00,0004.60,0004.39
2024-01-26 18:35:00,SystemResetWarning,0834.0,5.01,000.00,020.9,020.1,000.0,029.1,022.3,18.5,0000.0,0008.09,0004.60,0004.38
2024-01-26 18:36:00,SystemResetWarning,0834.0,5.01,000.00,020.9,020.2,000.0,029.1,022.3,18.6,0000.0,0008.26,0004.60,0004.36
2024-01-26 18:37:00,SystemResetWarning,0833.9,4.99,000.00,020.9,020.2,000.0,029.1,022.3,18.3,0000.0,0007.80,0004.61,0004.35
2024-01-26 18:38:00,SystemResetWarning,0834.0,5.00,000.00,020.9,020.2,000.0,029.1,022.4,17.9,0000.0,0007.37,0004.58,0004.32
2024-01-26 18:39:00,SystemResetWarning,0834.0,4.99,000.00,020.9,020.2,000.0,029.1,022.4,18.0,0000.0,0007.88,0004.53,0004.29
2024-01-26 18:40:00,SystemResetWarning,0834.0,5.00,000.00,020.9,020.2,000.0,029.2,022.4,18.8,0000.0,0007.87,0004.50,0004.27
2024-01-26 18:41:00,SystemResetWarning,0834.0,5.00,000.00,020.9,020.2,000.0,029.2,022.4,18.6,0000.0,0007.81,0004.47,0004.24
2024-01-26 18:42:00,SystemResetWarning,0834.0,5.00,000.00,021.0,020.2,000.0,029.2,022.4,18.2,0000.0,0007.79,0004.43,0004.21
2024-01-26 18:43:00,SystemResetWarning,0834.0,5.01,000.00,021.0,020.2,000.0,029.2,022.4,18.2,0000.0,0007.79,0004.40,0004.18
2024-01-26 18:44:00,SystemResetWarning,0834.0,5.00,000.00,021.0,020.3,000.0,029.2,022.4,18.2,0000.0,0007.73,0004.36,0004.15
2024-01-26 18:45:00,SystemResetWarning,0834.0,4.99,000.00,021.0,020.3,000.0,029.2,022.4,18.1,0000.0,0007.63,0004.30,0004.10
2024-01-26 18:46:00,SystemResetWarning,0834.0,4.99,000.00,021.0,020.3,000.0,029.2,022.4,18.5,0000.0,0007.46,0004.22,0004.06
2024-01-26 18:47:00,SystemResetWarning,0834.0,4.99,000.00,021.0,020.3,000.0,029.2,022.5,18.3,0000.0,0006.99,0004.15,0004.00
2024-01-26 18:48:00,SystemResetWarning,0834.0,4.99,000.00,021.0,020.3,000.0,029.2,022.5,18.5,0000.0,0006.62,0004.07,0003.94
2024-01-26 18:49:00,SystemResetWarning,0834.0,5.00,000.00,021.0,020.3,000.0,029.2,022.5,18.8,0000.0,0006.60,0004.05,0003.91
2024-01-26 18:50:00,SystemResetWarning,0834.0,5.00,000.00,021.0,020.3,000.0,029.3,022.5,18.1,0000.0,0005.63,0004.05,0003.90
2024-01-26 18:51:00,SystemResetWarning,0834.0,5.00,000.00,021.0,020.3,000.0,029.3,022.5,17.7,0000.0,0005.32,0004.04,0003.87
2024-01-26 18:52:00,SystemResetWarning,0834.0,5.01,000.00,021.1,020.3,000.0,029.3,022.5,17.8,0000.0,0005.30,0004.01,0003.85
2024-01-26 18:53:00,SystemResetWarning,0833.9,5.00,000.00,021.1,020.4,000.0,029.3,022.5,18.1,0000.0,0005.64,0003.99,0003.81
2024-01-26 18:54:00,SystemResetWarning,0833.9,5.00,000.00,021.1,020.4,000.0,029.3,022.5,18.4,0000.0,0005.53,0003.96,0003.78
2024-01-26 18:55:00,SystemResetWarning,0833.9,5.00,000.00,021.1,020.4,000.0,029.3,022.6,19.3,0000.0,0005.44,0003.91,0003.74
2024-01-26 18:56:00,SystemResetWarning,0833.8,4.99,000.00,021.1,020.4,000.0,029.3,022.6,18.9,0000.0,0005.45,0003.88,0003.71
2024-01-26 18:57:00,SystemResetWarning,0833.9,4.99,000.00,021.1,020.4,000.0,029.3,022.6,18.2,0000.0,0005.45,0003.86,0003.69
2024-01-26 18:58:00,SystemResetWarning,0833.9,5.00,000.00,021.1,020.4,000.0,029.3,022.5,18.6,0000.0,0005.37,0003.84,0003.67
2024-01-26 18:59:00,SystemResetWarning,0833.8,5.00,000.00,021.1,020.5,000.0,029.4,022.6,18.1,0000.0,0005.37,0003.84,0003.66
